Regional Weather Roundup
Issued by NWS Jackson, KY

Home | Current Version | Previous Version | Text Only | Print | Product List | Glossary On
Versions: 1 2 3 4 5 6 7 8 9 10 11 12 13 14 15 16 17 18 19 20 21 22 23 24 25 26 27 28 29 30 31 32 33 34 35 36 37 38 39 40 41 42 43 44 45 46 47 48 49 50
000
ASUS43 KJKL 130910
RWRJKL

EAST KENTUCKY HOURLY WEATHER ROUNDUP
NATIONAL WEATHER SERVICE JACKSON KY
400 AM EST SAT FEB 13 2016

NOTE: "FAIR" INDICATES FEW OR NO CLOUDS BELOW 12,000 FEET WITH
NO SIGNIFICANT WEATHER AND/OR OBSTRUCTIONS TO VISIBILITY.

* THESE REPORTS ARE NOT UNDER NWS QUALITY CONTROL AND MAY NOT
  REPORT WEATHER SUCH AS PRECIPITATION AND FOG.

KYZ079-080-083-085-087-088-110-112-115-119-120-131000
...EASTERN KENTUCKY...

CITY           SKY/WX    TMP DP  RH WIND       PRES   REMARKS
JACKSON        CLOUDY    19   9  65 VRB7      30.29R WCI  10
LONDON         FLURRIES  21  11  65 NW10      30.32R WCI  10
SOMERSET*      CLOUDY    23  16  74 NW5       30.37S WCI  17
MONTICELLO*    CLOUDY    21  11  65 NW12      30.38R WCI   9
WILLIAMSBURG*  CLOUDY    23  14  68 NW5       30.33R WCI  17
MIDDLESBORO*   CLOUDY    23  14  67 NW8       30.31R WCI  14
HARLAN APT*    CLOUDY    23  12  63 W8        30.28R WCI  14
HAZARD APT*    FLURRIES  18   9  68 N5G22     30.31  WCI  11
BLACK MTN*       N/A      9   9 100 N7          N/A  WCI  -3
BIG SANDY*     LGT SNOW  17  12  80 NW10G17   30.30R WCI   5
MOREHEAD APT*  CLOUDY    18   7  62 NW9G16    30.37R WCI   6
$$

KYZ035-036-041-042-044-050-067-078-099-131000
...CENTRAL KENTUCKY...

CITY           SKY/WX    TMP DP  RH WIND       PRES   REMARKS
MT STERLING*   CLOUDY    19   9  63 N6        30.37R WCI  11
DANVILLE*      CLOUDY    19  14  79 N9        30.38R WCI   9
RICHMOND*      CLOUDY    19  10  68 NW9       30.35R WCI   9
LEXINGTON      MOCLDY    17   5  59 NW12      30.37R WCI   4
FRANKFORT      CLOUDY    19   4  51 NW12      30.39R WCI   7
$$

KYZ091>093-OHZ055-061-077-WVZ005-015-034-035-042-131000
...SOUTHERN OHIO/WEST VIRGINIA...

CITY           SKY/WX    TMP DP  RH WIND       PRES   REMARKS
COVINGTON      PTCLDY    14   4  64 NW12      30.38R WCI   0
COLUMBUS       PTCLDY    10  -1  61 NW16      30.32R WCI  -7
DAYTON         LGT SNOW  12   7  80 NW21      30.35R WCI  -7
WILMINGTON     MOCLDY    12   4  70 NW16G24   30.32R WCI  -5
HUNTINGTON     CLOUDY    18   4  54 NW8G18    30.32R WCI   8
CHARLESTON     CLOUDY    17   2  51 NW12G18   30.28R WCI   4
PINEVILLE*     LGT SNOW  17   8  65 MISG      30.23R
BECKLEY        CLOUDY    12   7  80 NW10      30.11R HAZE    WCI  -1
$$

VAZ002-007-008-TNZ017-027-036-066-071-131000
...SOUTHWEST VIRGINIA/EAST TENNESSEE...

CITY           SKY/WX    TMP DP  RH WIND       PRES   REMARKS
BRISTOL        CLOUDY    24   9  52 NW13      30.21R WCI  12
KNOXVILLE      CLOUDY    27  18  69 N14G21    30.30R WCI  16
OAK RIDGE      CLOUDY    27  13  55 N9        30.33R WCI  18
CROSSVILLE     CLEAR     20  12  71 NW12G21   30.29R WCI   8
NASHVILLE      CLOUDY    25  12  58 N8        30.45R WCI  16
$$

...KEY TO REMARKS...
VSB - VISIBILITY IN MILES
WCI - WIND CHILL INDEX
HX  - HEAT INDEX

$$



USA.gov is the U.S. government's official web portal to all federal, state and local government web resources and services.